Tracking 23885 objects as of 28-Nov-2021
HD Live streaming from Space Station
objects crossing your sky now

BPA 3/SL-24 R/B

Track BPA 3/SL-24 R/B now!
10-day predictions


NORAD ID: 39448
Int'l Code: 2013-066AJ
Perigee: 597.4 km
Apogee: 1,616.0 km
Inclination: 97.7 °
Period: 107.3 minutes
Semi major axis: 7477 km
RCS: Unknown
Launch date: November 21, 2013
Source: Commonwealth of Independent States (former USSR) (CIS)
Launch site: Orenburg, Russia (OREN)

Note: This is a ROCKET BODY
aabbcc
Your satellite tracking list
Your tracking list is empty




NASA's NSSDC Master Catalog

Two Line Element Set (TLE):
1 39448U 13066AJ  21331.84968825  .00000011  00000-0  17001-4 0  9999
2 39448  97.6743 132.9951 0681068  66.2488 300.8553 13.42620180392778
Source of the keplerian elements: AFSPC